• Join FlightAware (Why Join?)
  • Login
  • US Flag 
04:41AM EDT


 

Airport Tracker/Info


-or-


 

Live Flight TrackerFlight Track Log ✈ HAL118 ✈ 03-May-2013 ✈ PHNL - PHKO / KOA

Flight Track Log - Related Links

Times and Time Zones

All times are in EDT time to prevent confusion due to time zone crossing. See the HAL118 flight status page for this flight to view local times or setup timezone preferences in your user account.

Time Position Orientation Groundspeed Altitude Reporting Facility
EDT Latitude Longitude Course Direction KTS MPH feet Rate Location/Type
01:20PM 21.3167 -157.9000 118° Southeast 180 207 1,100  Level Honolulu Center
01:21PM 21.2667 -157.8500 137° Southeast 220 253 3,100 1,800 Climbing Honolulu Center
01:22PM 21.2333 -157.8000 126° Southeast 270 311 4,700 1,980 Climbing Honolulu Center
01:23PM 21.1855 -157.7138 113° Southeast  Level FlightAware Approximate
01:23PM 21.1833 -157.7333 129° Southeast 280 322 7,100  Level Honolulu Center
01:24PM 21.1494 -157.6407 126° Southeast  Level FlightAware Approximate
01:24PM 21.1500 -157.6500 113° Southeast 290 334 9,200  Level Honolulu Center
01:25PM 21.1043 -157.5731 126° Southeast  Level FlightAware Approximate
01:25PM 21.1000 -157.5833 129° Southeast 300 345 11,000  Level Honolulu Center
01:26PM 21.0669 -157.5004 118° Southeast  Level FlightAware Approximate
01:26PM 21.0500 -157.5000 123° Southeast 340 391 12,100  Level Honolulu Center
01:27PM 20.9833 -157.4167 131° Southeast 370 426 13,700 1,620 Climbing Honolulu Center
01:28PM 20.9167 -157.3333 131° Southeast 380 437 15,400 1,800 Climbing Honolulu Center
01:29PM 20.8500 -157.2500 131° Southeast 390 449 17,300 1,680 Climbing Honolulu Center
01:30PM 20.7833 -157.1667 131° Southeast 390 449 18,800 1,800 Climbing Honolulu Center
01:31PM 20.7000 -157.0500 127° Southeast 390 449 21,000 1,080 Climbing Honolulu Center
01:32PM 20.6333 -156.9667 131° Southeast 410 472 21,000  Level Honolulu Center
01:33PM 20.5667 -156.8667 125° Southeast 410 472 21,000  Level Honolulu Center
01:34PM 20.5000 -156.7667 125° Southeast 410 472 21,000 -840 Level Honolulu Center
01:35PM 20.4167 -156.6833 137° Southeast 410 472 19,400 -1,980 Descending Honolulu Center
01:36PM 20.3500 -156.5833 125° Southeast 380 437 17,100 -2,460 Descending Honolulu Center
01:37PM 20.3000 -156.5000 123° Southeast 370 426 14,500 -2,580 Descending Honolulu Center
01:38PM 20.2333 -156.4167 130° Southeast 350 403 12,000 -1,920 Descending Honolulu Center
01:39PM 20.1667 -156.3500 137° Southeast 320 368 10,700 -1,560 Descending Honolulu Center
01:40PM 20.1167 -156.2833 129° Southeast 290 334 8,900 -1,680 Descending Honolulu Center
01:41PM 20.0667 -156.2333 137° Southeast 290 334 7,400 -1,740 Descending Honolulu Center
01:42PM 20.0000 -156.1833 145° Southeast 280 322 5,400 -1,860 Descending Honolulu Center
01:43PM 19.9500 -156.1333 137° Southeast 260 299 3,700 -1,740 Descending Honolulu Center